Location: Clarion
(42.7316°N, 93.7330°W)
Time: 09:50:36
(UTC+00:00)

Okean O Rocket - Pass Details

Date: 22 April 2026
Orbit: 613 x 635 km, 98.0° (Epoch: 17 May)

Event Time Altitude Azimuth Distance (km) Brightness Sun altitude
Exits shadow 03:03:34 47° 156° (SSE) 830 1.8 -20.0°
Maximum altitude 03:04:47 81° 76° (ENE) 634 1.4 -20.2°
Drops below altitude 10° 03:09:08 10° 349° (N) 1,993 4.9 -20.8°
Sets 03:11:19 0° 349° (NNW) 2,900 5.8 -21.1°
